Wind_Speed
73 68 64 61 58 56 51 51 49 51 48 48 50 49 54 51 53 54 54 54 50 45 46 45 51 54 55 65 72 70 72 81 92 95 92 96 93 87 78 72 69 66 64 61 56 52 54
74 75 69 65 60 59 55 51 51 51 50 47 50 49 54 52 53 54 53 55 49 44 45 50 51 56 62 72 81 74 70 72 88 100 98 97 93 92 85 78 72 70 64 61 53 52 52
77 74 72 67 62 57 52 52 50 50 54 47 50 48 53 52 56 55 55 57 45 44 48 49 56 61 63 76 78 79 73 75 79 102 104 100 99 96 88 80 74 71 61 57 52 51 52
77 77 74 68 63 59 54 53 53 51 54 48 50 48 53 52 55 54 56 50 39 44 46 53 61 64 70 76 77 80 69 70 83 99 109 105 102 97 89 83 78 70 62 55 55 51 53
71 75 76 71 67 62 57 55 53 52 54 49 50 47 52 52 55 54 55 45 42 48 56 59 63 64 62 63 67 70 60 70 89 102 110 109 104 99 94 85 79 69 57 59 55 53 52
65 69 75 74 71 66 60 58 58 54 54 48 49 46 51 51 54 54 52 41 43 50 57 63 65 61 53 51 59 53 53 63 78 95 104 108 103 100 93 85 67 61 59 62 55 53 50
64 66 71 73 72 68 59 56 55 54 53 45 47 45 50 52 53 54 46 42 48 51 59 64 63 51 41 43 47 44 48 56 65 79 97 106 102 97 86 76 72 67 70 62 56 53 48
65 67 68 75 73 69 63 58 53 52 51 43 46 45 48 52 51 53 42 46 50 57 59 63 55 44 35 36 40 39 46 51 60 74 97 105 97 94 87 82 74 72 68 61 53 53 49
63 68 68 70 71 68 65 59 51 52 48 42 43 43 47 51 49 47 41 48 54 60 59 62 51 41 32 31 35 40 47 52 64 78 99 98 92 95 88 81 75 70 66 62 55 56 50
64 65 70 69 68 67 63 60 52 52 47 41 40 40 44 50 48 39 42 49 54 62 58 54 47 40 29 25 34 39 47 52 68 84 98 91 96 93 86 80 74 72 68 59 56 56 51
64 62 67 68 65 67 65 59 53 51 45 39 37 39 41 46 45 35 42 48 53 59 55 48 43 34 23 24 33 40 46 51 70 89 95 92 97 94 87 78 76 77 71 59 61 55 52
63 61 65 64 63 63 66 59 52 51 44 39 34 36 38 43 38 32 40 45 49 50 50 49 40 28 22 25 33 42 46 54 76 92 90 95 97 91 83 81 80 76 70 61 61 56 53
57 59 62 59 59 59 56 59 52 49 42 38 30 33 37 40 30 32 39 43 42 42 45 45 34 16 11 19 32 42 50 62 85 91 92 98 98 90 87 85 81 75 70 64 61 54 53
52 56 59 57 57 56 53 60 52 47 39 35 26 30 34 37 26 31 33 36 36 37 43 42 30 12 4 16 31 44 60 77 90 88 95 96 95 93 87 82 74 71 67 62 58 56 54
49 53 56 56 58 55 55 57 52 45 35 31 24 27 30 30 22 27 30 31 27 30 38 37 32 19 13 20 33 48 66 84 88 88 93 95 92 92 85 79 73 71 64 59 60 58 55
48 50 53 56 57 56 59 56 51 45 35 27 22 25 26 24 19 22 25 26 20 25 33 35 33 27 26 22 28 44 69 81 81 84 91 96 91 83 79 78 75 71 68 62 59 59 55
43 48 54 59 61 61 61 56 51 42 34 24 21 22 24 19 16 18 20 20 13 20 28 30 28 27 26 23 34 55 67 68 70 77 85 85 81 76 78 75 71 69 65 63 61 58 56
44 48 56 61 63 64 62 57 49 39 33 24 21 20 20 17 14 14 16 15 6 15 22 26 25 26 32 35 42 48 54 57 61 68 75 78 76 76 76 74 72 70 67 64 58 58 59
43 49 60 65 67 65 64 55 45 40 33 23 21 18 16 15 15 13 11 10 1 9 15 20 23 23 24 31 35 39 47 52 59 67 75 79 77 74 72 72 68 63 64 65 65 65 60
44 52 60 66 68 66 63 52 45 42 32 24 21 18 14 18 20 13 10 13 7 5 10 15 19 23 24 25 27 34 43 49 56 66 75 79 77 74 70 71 70 67 67 68 67 63 64
47 55 62 68 68 64 61 52 46 42 32 25 22 18 13 21 23 19 14 13 8 10 9 13 16 20 21 24 26 30 36 43 49 60 70 75 76 74 73 72 70 69 65 63 59 65 62
51 58 63 68 67 64 59 53 48 41 32 27 22 20 13 24 24 18 18 12 4 16 16 16 16 17 19 21 26 32 36 42 46 53 63 74 76 75 73 71 68 66 65 62 61 60 59
55 60 64 69 67 64 59 53 47 40 35 29 24 21 14 26 30 24 18 15 7 11 18 20 16 19 19 18 20 24 30 37 43 47 54 68 75 74 72 71 68 64 65 66 67 66 68
57 63 65 70 70 65 62 57 51 42 36 31 25 23 22 24 33 28 21 21 12 9 15 21 18 19 19 20 19 21 25 30 37 41 45 52 68 74 73 73 69 72 71 70 69 70 71
58 64 66 72 72 67 63 59 51 44 39 33 28 25 22 16 33 32 27 25 20 14 12 18 22 21 23 21 21 22 23 26 29 34 39 44 50 61 71 73 76 78 77 76 75 76 76
63 70 70 73 74 71 66 61 53 47 41 36 30 27 27 24 34 34 33 29 24 22 17 13 24 26 22 22 25 23 24 25 25 27 31 36 42 45 49 56 65 74 77 79 79 80 80
65 71 73 73 77 74 68 62 54 50 42 37 32 28 28 24 19 41 37 36 28 27 22 18 15 14 23 25 24 25 25 25 23 22 23 27 31 33 37 39 44 49 52 55 58 62 64
68 73 74 74 80 75 70 63 56 51 44 38 33 30 27 24 18 43 42 39 34 31 28 25 20 17 13 14 18 23 26 27 26 27 29 28 27 28 29 29 31 33 34 35 38 41 44
68 72 75 77 83 78 72 65 58 53 45 40 35 31 26 24 20 39 48 43 41 37 35 31 28 25 23 20 18 17 15 20 25 28 30 30 32 31 31 34 33 33 35 36 38 41 42
Wind_Direction
256 257 259 261 264 267 270 274 279 281 284 289 286 286 292 300 302 305 304 305 302 289 285 286 282 280 273 269 267 262 250 237 228 225 222 224 219 219 218 218 219 220 223 226 225 226 230
254 256 258 261 262 266 270 272 278 281 283 291 287 288 294 302 304 307 304 305 295 292 289 290 279 281 278 275 267 264 255 242 228 222 220 220 218 215 215 214 216 215 218 224 222 224 228
253 255 258 258 261 264 266 269 277 279 281 290 290 289 295 303 306 309 304 304 297 295 291 291 284 282 281 274 272 268 259 244 231 222 215 216 215 210 212 212 212 212 216 220 218 218 223
255 255 254 255 256 260 262 268 271 280 279 287 291 292 296 304 307 308 306 300 296 293 294 298 293 288 281 278 272 266 256 239 226 219 213 212 212 207 209 210 210 210 213 215 215 213 222
256 255 253 252 256 257 265 265 268 277 278 284 291 293 296 304 306 308 307 300 296 297 299 299 296 293 285 279 269 262 250 231 220 217 211 209 208 203 205 207 208 210 211 213 211 213 218
256 252 252 253 254 255 259 263 268 274 276 282 291 293 295 303 306 306 307 301 296 300 306 302 305 296 286 281 268 259 241 227 221 219 208 206 205 200 201 205 205 206 209 213 211 211 210
256 252 247 249 253 254 259 257 264 273 273 279 290 294 297 305 307 309 307 300 302 306 305 307 307 295 295 281 267 248 232 224 217 212 203 203 202 196 196 200 201 200 203 208 208 205 206
257 251 247 247 248 250 256 257 259 269 271 280 289 294 299 306 308 311 305 301 307 309 310 314 309 304 299 278 260 238 223 215 207 202 197 200 197 192 193 197 197 198 201 207 202 200 205
264 250 245 244 246 247 252 253 255 266 271 279 288 294 299 306 307 310 303 307 312 311 318 318 317 310 302 273 250 228 214 211 200 193 192 195 191 190 191 195 195 196 202 205 198 197 203
265 253 245 241 243 248 248 253 252 262 268 275 288 293 301 307 308 308 305 309 317 316 324 320 320 315 304 261 236 218 209 206 195 188 187 187 187 189 190 192 193 195 200 201 196 194 204
264 254 244 240 239 242 245 247 249 257 264 270 286 291 302 306 310 305 304 312 318 321 326 330 325 312 286 250 224 210 203 198 190 184 184 184 185 187 188 189 192 195 199 198 193 196 206
264 251 243 237 236 235 244 242 246 254 259 267 282 289 302 302 309 302 303 316 324 325 333 335 329 309 271 242 215 201 198 190 180 178 180 182 184 186 187 189 192 194 197 200 197 200 206
257 247 239 233 230 228 233 236 241 250 253 264 278 290 301 304 304 299 310 320 328 334 347 346 341 322 258 214 199 190 188 180 175 176 179 180 183 185 189 190 191 194 197 201 201 201 209
247 241 233 225 220 218 224 232 236 245 250 261 275 288 300 304 296 295 314 323 333 352 358 356 359 346 224 191 181 181 179 174 171 177 179 181 183 187 189 190 190 194 198 202 204 205 212
246 234 226 217 212 212 218 226 233 239 247 259 272 286 297 303 286 293 312 323 335 4 10 12 22 45 91 148 164 169 171 170 174 178 180 181 185 188 188 189 192 197 199 202 206 207 213
242 231 220 209 205 205 214 222 229 235 244 253 266 283 292 295 271 292 311 324 336 19 29 31 34 59 81 114 143 159 168 171 175 180 179 182 188 187 188 191 193 197 201 205 208 210 215
239 226 211 204 201 204 211 217 224 230 238 245 257 278 292 278 259 285 306 324 341 40 47 46 53 69 93 123 150 158 164 172 179 181 183 184 186 187 191 193 196 200 204 208 212 214 218
232 221 208 200 198 201 207 214 220 225 233 236 249 270 287 259 243 277 299 317 333 63 70 69 71 88 105 129 148 159 168 174 180 182 185 187 191 193 193 197 200 203 207 211 215 221 222
228 216 205 200 200 199 204 210 213 218 225 226 242 256 278 241 228 260 285 296 286 92 87 94 106 109 125 135 150 166 175 180 182 186 187 191 196 197 200 202 203 206 211 214 218 224 229
224 212 205 198 200 198 202 204 207 215 217 217 234 243 271 223 224 228 251 282 176 116 111 115 122 133 143 152 158 167 175 181 188 190 192 193 198 200 202 205 209 211 215 217 220 226 232
217 209 201 198 202 197 198 202 203 210 211 211 227 232 258 213 216 218 236 265 204 153 144 148 143 145 153 161 170 177 185 186 192 197 197 199 202 205 208 211 213 215 220 223 227 231 236
211 206 200 198 199 193 196 196 200 204 206 207 220 220 240 202 206 211 216 243 224 178 159 170 167 162 162 171 175 180 187 191 195 199 202 203 206 209 212 215 218 221 224 228 231 236 240
206 203 197 196 194 191 193 192 199 203 202 204 216 216 226 203 207 208 215 216 203 185 170 171 176 174 168 176 182 186 187 194 198 201 206 207 210 213 216 219 222 225 227 229 233 238 241
202 198 195 194 189 189 191 194 199 201 199 202 211 209 214 210 209 208 214 200 208 161 175 178 179 186 173 170 180 180 189 194 196 199 204 209 213 216 219 222 224 228 230 233 235 239 242
198 197 195 193 188 189 192 195 197 198 197 202 207 207 213 222 210 208 204 213 198 172 169 182 185 190 184 176 177 175 178 184 193 201 205 207 210 215 221 223 226 229 231 234 237 241 244
195 193 194 192 190 190 192 194 194 197 195 200 205 208 214 212 214 209 206 215 199 185 170 173 194 191 195 186 187 182 183 184 185 191 199 207 213 216 219 223 228 233 237 240 242 245 247
194 193 193 193 191 191 192 194 193 196 195 199 203 208 218 215 227 210 208 212 202 190 185 175 178 180 196 199 197 196 194 193 187 194 200 204 204 209 216 220 226 229 234 237 240 244 248
193 194 193 192 191 191 193 194 193 195 195 198 201 208 219 220 233 212 208 206 202 190 186 183 179 179 181 184 204 213 210 208 202 205 207 208 209 213 214 219 222 228 233 236 240 245 247
194 194 192 192 192 192 192 193 192 195 195 197 204 207 217 220 231 213 208 204 209 202 198 190 191 190 190 192 191 194 205 224 222 225 224 222 219 220 223 226 228 229 234 236 238 240 244
Height
10632 10636 10638 10639 10639 10639 10639 10639 10638 10637 10635 10632 10627 10624 10619 10615 10610 10603 10597 10591 10585 10580 10578 10577 10576 10574 10572 10569 10569 10568 10568 10576 10589 10602 10616 10626 10648 10668 10684 10697 10704 10715 10720 10729 10742 10750 10753
10616 10621 10624 10627 10627 10628 10628 10627 10627 10626 10622 10621 10616 10612 10607 10602 10597 10590 10583 10577 10571 10567 10565 10562 10560 10557 10550 10546 10539 10538 10543 10548 10559 10574 10594 10606 10631 10651 10663 10677 10693 10700 10709 10718 10735 10742 10745
10602 10604 10609 10612 10614 10616 10616 10616 10616 10614 10611 10610 10605 10602 10595 10591 10584 10578 10569 10562 10557 10554 10550 10547 10542 10536 10528 10512 10511 10511 10509 10515 10525 10543 10566 10585 10604 10628 10649 10664 10678 10689 10702 10713 10728 10734 10738
10589 10590 10592 10597 10600 10603 10604 10603 10604 10603 10599 10598 10594 10589 10583 10579 10571 10564 10557 10549 10544 10539 10535 10529 10521 10513 10502 10486 10482 10478 10478 10486 10494 10513 10540 10560 10582 10613 10637 10653 10664 10681 10694 10710 10717 10726 10730
10570 10574 10577 10580 10585 10588 10591 10590 10592 10590 10588 10587 10583 10578 10571 10567 10560 10552 10544 10536 10530 10525 10518 10509 10498 10485 10475 10460 10452 10446 10452 10454 10464 10484 10515 10538 10564 10599 10618 10642 10656 10676 10695 10700 10712 10718 10724
10551 10554 10560 10563 10569 10573 10577 10578 10580 10579 10576 10577 10573 10568 10561 10557 10549 10541 10532 10525 10518 10510 10499 10487 10475 10461 10448 10437 10426 10427 10430 10437 10448 10466 10495 10525 10554 10583 10608 10630 10665 10680 10687 10690 10702 10711 10717
10533 10536 10541 10546 10552 10558 10563 10564 10568 10567 10565 10567 10563 10557 10550 10545 10536 10528 10519 10513 10505 10496 10480 10468 10455 10440 10428 10416 10409 10410 10415 10424 10436 10454 10484 10515 10544 10577 10613 10638 10647 10662 10664 10680 10692 10704 10711
10513 10517 10522 10529 10535 10542 10549 10551 10555 10554 10554 10556 10553 10546 10540 10534 10525 10516 10508 10501 10491 10477 10465 10450 10434 10419 10410 10400 10397 10399 10405 10413 10426 10447 10475 10502 10541 10579 10601 10619 10636 10648 10662 10674 10688 10698 10703
10493 10496 10502 10510 10518 10526 10533 10538 10542 10542 10543 10546 10542 10536 10530 10524 10514 10506 10497 10488 10475 10459 10446 10432 10416 10403 10394 10388 10385 10387 10396 10407 10418 10438 10467 10506 10548 10569 10592 10612 10627 10646 10657 10667 10679 10690 10697
10470 10474 10481 10490 10501 10510 10518 10524 10529 10530 10533 10535 10533 10526 10521 10513 10504 10496 10487 10477 10463 10446 10433 10420 10402 10391 10383 10379 10375 10380 10391 10402 10417 10440 10473 10512 10534 10564 10587 10604 10622 10637 10648 10661 10674 10683 10690
10447 10452 10459 10470 10483 10495 10504 10511 10517 10519 10522 10525 10524 10518 10513 10504 10497 10488 10478 10468 10455 10436 10421 10407 10392 10381 10374 10370 10371 10378 10387 10402 10421 10444 10478 10507 10532 10555 10577 10602 10615 10625 10639 10655 10668 10677 10684
10422 10430 10438 10451 10465 10477 10489 10498 10504 10508 10511 10515 10515 10510 10505 10495 10489 10481 10473 10462 10449 10435 10416 10397 10381 10370 10365 10364 10369 10379 10390 10404 10424 10455 10483 10503 10531 10555 10579 10590 10604 10619 10635 10650 10662 10670 10676
10399 10408 10418 10433 10449 10462 10474 10485 10492 10496 10501 10505 10505 10502 10497 10489 10482 10475 10467 10457 10446 10432 10411 10392 10375 10364 10359 10361 10368 10380 10395 10413 10435 10460 10481 10504 10525 10549 10565 10579 10596 10615 10629 10642 10654 10665 10669
10379 10387 10400 10416 10433 10447 10460 10471 10480 10486 10491 10495 10495 10494 10490 10483 10475 10470 10463 10454 10444 10431 10411 10393 10375 10364 10360 10363 10371 10380 10396 10415 10443 10465 10480 10507 10526 10540 10563 10581 10605 10618 10627 10639 10653 10658 10663
10364 10370 10384 10400 10416 10433 10447 10459 10469 10476 10482 10485 10487 10486 10482 10477 10471 10466 10460 10453 10444 10432 10415 10399 10381 10370 10365 10369 10379 10391 10408 10429 10450 10468 10490 10510 10528 10539 10564 10584 10599 10610 10623 10636 10644 10650 10657
10347 10357 10371 10387 10403 10419 10434 10446 10457 10466 10474 10477 10478 10478 10475 10471 10467 10464 10458 10452 10445 10434 10421 10408 10397 10387 10380 10389 10399 10409 10428 10446 10461 10479 10497 10512 10528 10550 10567 10579 10592 10606 10615 10629 10639 10644 10651
10335 10345 10358 10375 10390 10407 10421 10434 10446 10457 10464 10468 10471 10470 10468 10466 10463 10461 10456 10452 10447 10439 10429 10422 10418 10411 10404 10413 10425 10437 10451 10464 10478 10491 10507 10522 10538 10555 10565 10580 10594 10606 10617 10625 10631 10638 10645
10320 10332 10347 10363 10379 10394 10410 10422 10436 10449 10455 10459 10463 10463 10461 10460 10460 10458 10455 10452 10449 10444 10439 10435 10434 10434 10431 10437 10450 10462 10469 10479 10493 10505 10521 10532 10543 10554 10566 10578 10587 10597 10607 10616 10627 10632 10635
10310 10321 10335 10351 10367 10383 10398 10412 10427 10439 10446 10451 10455 10457 10455 10455 10456 10455 10454 10450 10449 10447 10446 10444 10446 10448 10453 10456 10461 10470 10479 10489 10498 10508 10520 10530 10541 10553 10567 10576 10587 10601 10607 10612 10617 10621 10631
10300 10312 10327 10342 10357 10373 10388 10402 10418 10429 10437 10443 10447 10450 10450 10449 10451 10452 10452 10450 10451 10450 10451 10451 10452 10456 10460 10465 10471 10477 10483 10490 10498 10506 10517 10527 10539 10552 10563 10571 10579 10590 10595 10602 10611 10621 10623
10288 10301 10317 10332 10349 10366 10380 10395 10410 10420 10428 10435 10440 10443 10444 10445 10447 10449 10450 10450 10450 10452 10455 10455 10455 10457 10463 10467 10473 10478 10486 10492 10500 10509 10519 10530 10539 10548 10555 10563 10574 10582 10592 10601 10613 10612 10619
10278 10291 10307 10324 10342 10359 10373 10385 10400 10411 10420 10427 10433 10436 10438 10440 10442 10444 10447 10449 10449 10451 10454 10458 10458 10460 10466 10470 10475 10479 10484 10491 10497 10505 10515 10524 10532 10540 10550 10560 10570 10579 10588 10598 10603 10609 10612
10269 10283 10297 10315 10334 10351 10365 10379 10393 10402 10411 10419 10425 10429 10432 10434 10438 10440 10443 10446 10447 10450 10453 10457 10459 10461 10467 10471 10476 10481 10485 10490 10496 10503 10511 10521 10529 10539 10548 10556 10565 10577 10584 10587 10591 10597 10596
10260 10273 10290 10307 10326 10342 10356 10370 10383 10393 10404 10412 10419 10423 10427 10429 10433 10436 10440 10444 10446 10448 10452 10455 10459 10462 10467 10470 10474 10479 10484 10490 10495 10501 10508 10516 10525 10534 10541 10551 10561 10563 10570 10577 10582 10586 10588
10252 10266 10281 10297 10318 10334 10348 10361 10375 10385 10395 10404 10412 10417 10421 10424 10427 10433 10437 10441 10445 10448 10450 10453 10457 10462 10465 10471 10475 10479 10483 10488 10493 10499 10505 10511 10518 10525 10533 10539 10546 10552 10557 10563 10569 10573 10576
10243 10256 10274 10292 10311 10326 10340 10353 10366 10378 10388 10397 10405 10410 10415 10419 10423 10429 10433 10437 10443 10446 10449 10452 10455 10459 10464 10468 10474 10478 10482 10486 10491 10496 10501 10507 10513 10519 10526 10531 10536 10543 10550 10555 10560 10561 10564
10236 10249 10266 10284 10303 10318 10332 10345 10358 10370 10381 10390 10398 10404 10408 10413 10417 10423 10428 10433 10439 10444 10448 10452 10454 10457 10461 10466 10472 10477 10481 10486 10491 10495 10500 10504 10509 10513 10518 10523 10528 10535 10540 10544 10548 10548 10553
10227 10242 10258 10277 10294 10310 10324 10338 10351 10363 10373 10383 10391 10398 10402 10406 10410 10415 10422 10428 10434 10440 10445 10449 10454 10458 10461 10465 10468 10473 10479 10483 10488 10492 10496 10501 10505 10510 10514 10518 10522 10527 10532 10536 10538 10540 10543
10221 10236 10253 10270 10286 10302 10318 10331 10344 10356 10366 10376 10385 10391 10396 10399 10403 10407 10414 10422 10429 10435 10440 10445 10450 10455 10459 10464 10468 10471 10475 10478 10483 10488 10492 10495 10499 10503 10507 10510 10515 10519 10523 10526 10528 10530 10532